Alva, OK

4:42 AM CDT on August 22, 2017 (GMT -0500)
Alva Regional

Weather History for KAVK - October, 2012

Change the Weather History Date:

Saturday, October 6, 2012

  Actual Average Record
Temperature  
Mean Temperature 44 °F -  
Max Temperature 46 °F 78 °F 95 °F (1963)
Min Temperature 39 °F 50 °F 35 °F (2001)
Degree Days  
Heating Degree Days 22    
Moisture  
Dew Point 32 °F    
Average Humidity 61    
Maximum Humidity 75    
Minimum Humidity 57    
Precipitation  
Precipitation 0.00 in - - ()
Sea Level Pressure  
Sea Level Pressure 30.33 in    
Wind  
Wind Speed 9 mph (NE)    
Max Wind Speed 17 mph    
Max Gust Speed 24 mph    
Visibility 10 miles    
Events      
Averages and records for this station are not official NWS values.
T = Trace of Precipitation, MM = Missing Value Source: NWS Daily Summary

Daily Weather History Graph

Daily Weather History Graph

Search for Another Location

Airport or City:

Trip Planner

Search our weather history database for the weather conditions in past years. The results will help you decide how hot, cold, wet, or windy it might be!

Date:

Astronomy

Oct. 06, 2012 Rise Set
Actual Time 7:34 AM CDT 7:09 PM CDT
Civil Twilight 7:08 AM CDT 7:35 PM CDT
Nautical Twilight 6:38 AM CDT 8:05 PM CDT
Astronomical Twilight 6:08 AM CDT 8:35 PM CDT
Moon 11:33 PM CDT (10/6) 1:23 PM CDT (10/6)
Length of Visible Light 12h 27m
Length of Day
11h 35m
Waning Gibbous, 65% of the Moon is Illuminated
Oct 6
Waning Gibbous
Oct 8
Last Quarter
Oct 15
New
Oct 21
First Quarter
Oct 29
Full

Hourly Weather History & Observations

Time (CDT) Temp. Windchill Dew Point Humidity Pressure Visibility Wind Dir Wind Speed Gust Speed Precip Events Conditions
12:00 AM 44.6 °F 40.2 °F 32.0 °F 61% 30.33 in 10.0 mi NNE 8.1 mph - N/A   Clear
12:20 AM 44.6 °F 39.2 °F 32.0 °F 61% 30.33 in 10.0 mi NNE 10.4 mph - N/A   Clear
12:40 AM 44.6 °F 39.7 °F 32.0 °F 61% 30.32 in 10.0 mi NE 9.2 mph - N/A   Clear
1:00 AM 44.6 °F 40.2 °F 32.0 °F 61% 30.32 in 10.0 mi NE 8.1 mph - N/A   Clear
1:20 AM 44.6 °F 39.7 °F 32.0 °F 61% 30.32 in 10.0 mi NNE 9.2 mph - N/A   Mostly Cloudy
1:40 AM 44.6 °F 38.8 °F 32.0 °F 61% 30.32 in 10.0 mi NNE 11.5 mph - N/A   Overcast
2:00 AM 44.6 °F 39.7 °F 32.0 °F 61% 30.32 in 10.0 mi NNE 9.2 mph - N/A   Overcast
2:20 AM 44.6 °F 39.2 °F 32.0 °F 61% 30.32 in 10.0 mi NE 10.4 mph - N/A   Overcast
2:40 AM 44.6 °F 39.2 °F 32.0 °F 61% 30.31 in 10.0 mi NE 10.4 mph - N/A   Overcast
3:00 AM 46.4 °F 41.9 °F 32.0 °F 57% 30.30 in 10.0 mi NE 9.2 mph - N/A   Overcast
3:20 AM 46.4 °F 41.9 °F 32.0 °F 57% 30.30 in 10.0 mi NNE 9.2 mph - N/A   Overcast
3:40 AM 46.4 °F 41.9 °F 32.0 °F 57% 30.30 in 10.0 mi NNE 9.2 mph - N/A   Overcast
4:20 AM 46.4 °F 42.9 °F 32.0 °F 57% 30.30 in 10.0 mi NNE 6.9 mph - N/A   Overcast
4:40 AM 46.4 °F 41.9 °F 32.0 °F 57% 30.30 in 10.0 mi NNE 9.2 mph - N/A   Overcast
5:20 AM 46.4 °F 41.9 °F 32.0 °F 57% 30.30 in 10.0 mi NNE 9.2 mph - N/A   Overcast
5:40 AM 44.6 °F 38.8 °F 32.0 °F 61% 30.29 in 10.0 mi NNE 11.5 mph - N/A   Overcast
6:00 AM 44.6 °F 40.2 °F 33.8 °F 66% 30.29 in 10.0 mi NE 8.1 mph - N/A   Overcast
6:40 AM 44.6 °F 39.7 °F 33.8 °F 66% 30.30 in 10.0 mi NNE 9.2 mph - N/A   Overcast
7:00 AM 44.6 °F 39.2 °F 33.8 °F 66% 30.31 in 10.0 mi NNE 10.4 mph - N/A   Overcast
7:20 AM 44.6 °F 39.7 °F 33.8 °F 66% 30.31 in 10.0 mi NNE 9.2 mph - N/A   Overcast
7:40 AM 44.6 °F 38.8 °F 33.8 °F 66% 30.31 in 10.0 mi NE 11.5 mph - N/A   Overcast
8:00 AM 44.6 °F 39.7 °F 33.8 °F 66% 30.31 in 10.0 mi NNE 9.2 mph - N/A   Overcast
8:20 AM 44.6 °F 40.2 °F 33.8 °F 66% 30.31 in 10.0 mi NE 8.1 mph - N/A   Overcast
8:40 AM 46.4 °F 44.3 °F 33.8 °F 62% 30.32 in 10.0 mi NE 4.6 mph - N/A   Overcast
9:00 AM 46.4 °F 42.4 °F 33.8 °F 62% 30.34 in 10.0 mi NE 8.1 mph - N/A   Overcast
9:20 AM 46.4 °F 43.5 °F 33.8 °F 62% 30.34 in 10.0 mi ENE 5.8 mph - N/A   Overcast
9:40 AM 46.4 °F 44.3 °F 32.0 °F 57% 30.35 in 10.0 mi ENE 4.6 mph - N/A   Overcast
10:00 AM 46.4 °F 43.5 °F 32.0 °F 57% 30.36 in 10.0 mi ENE 5.8 mph - N/A   Overcast
10:20 AM 46.4 °F 43.5 °F 32.0 °F 57% 30.35 in 10.0 mi East 5.8 mph - N/A   Overcast
10:40 AM 46.4 °F 42.9 °F 32.0 °F 57% 30.35 in 10.0 mi ENE 6.9 mph - N/A   Overcast
11:00 AM 46.4 °F 42.4 °F 32.0 °F 57% 30.35 in 10.0 mi NE 8.1 mph - N/A   Overcast
11:20 AM 46.4 °F 41.5 °F 32.0 °F 57% 30.35 in 10.0 mi NE 10.4 mph - N/A   Overcast
11:40 AM 46.4 °F 41.9 °F 32.0 °F 57% 30.35 in 10.0 mi NE 9.2 mph - N/A   Overcast
12:00 PM 46.4 °F 41.1 °F 32.0 °F 57% 30.36 in 10.0 mi NE 11.5 mph - N/A   Overcast
12:20 PM 46.4 °F 41.9 °F 32.0 °F 57% 30.36 in 10.0 mi NE 9.2 mph - N/A   Overcast
12:40 PM 46.4 °F 40.4 °F 32.0 °F 57% 30.35 in 10.0 mi NE 13.8 mph - N/A   Overcast
1:00 PM 44.6 °F 37.2 °F 32.0 °F 61% 30.35 in 10.0 mi NE 17.3 mph 24.2 mph N/A   Overcast
1:20 PM 44.6 °F 37.8 °F 32.0 °F 61% 30.35 in 10.0 mi ENE 15.0 mph 19.6 mph N/A   Overcast
1:40 PM 44.6 °F 38.4 °F 33.8 °F 66% 30.33 in 10.0 mi NE 12.7 mph - N/A   Overcast
2:00 PM 44.6 °F 37.8 °F 32.0 °F 61% 30.33 in 10.0 mi ENE 15.0 mph - N/A   Overcast
2:20 PM 46.4 °F 40.7 °F 32.0 °F 57% 30.32 in 10.0 mi ENE 12.7 mph 19.6 mph N/A   Overcast
2:40 PM 46.4 °F 40.7 °F 32.0 °F 57% 30.31 in 10.0 mi ENE 12.7 mph 20.7 mph N/A   Overcast
3:00 PM 46.4 °F 41.5 °F 32.0 °F 57% 30.32 in 10.0 mi NE 10.4 mph - N/A   Overcast
3:20 PM 46.4 °F 40.7 °F 32.0 °F 57% 30.31 in 10.0 mi ENE 12.7 mph - N/A   Overcast
3:40 PM 46.4 °F 41.9 °F 32.0 °F 57% 30.31 in 10.0 mi NNE 9.2 mph - N/A   Overcast
4:00 PM 46.4 °F 41.5 °F 32.0 °F 57% 30.31 in 10.0 mi NE 10.4 mph - N/A   Overcast
4:20 PM 46.4 °F 40.7 °F 32.0 °F 57% 30.31 in 10.0 mi NE 12.7 mph - N/A   Overcast
4:40 PM 46.4 °F 41.1 °F 32.0 °F 57% 30.31 in 10.0 mi NE 11.5 mph - N/A   Overcast
5:00 PM 46.4 °F 41.1 °F 32.0 °F 57% 30.31 in 10.0 mi NE 11.5 mph - N/A   Overcast
5:20 PM 46.4 °F 40.4 °F 32.0 °F 57% 30.32 in 10.0 mi NNE 13.8 mph 18.4 mph N/A   Overcast
5:40 PM 46.4 °F 40.1 °F 32.0 °F 57% 30.32 in 10.0 mi NNE 15.0 mph 20.7 mph N/A   Overcast
6:00 PM 44.6 °F 37.8 °F 32.0 °F 61% 30.32 in 10.0 mi NE 15.0 mph - N/A   Overcast
6:20 PM 44.6 °F 38.4 °F 32.0 °F 61% 30.33 in 10.0 mi NNE 12.7 mph - N/A   Overcast
6:40 PM 44.6 °F 39.2 °F 32.0 °F 61% 30.33 in 10.0 mi NNE 10.4 mph - N/A   Overcast
7:00 PM 44.6 °F 38.8 °F 32.0 °F 61% 30.33 in 10.0 mi NE 11.5 mph - N/A   Overcast
7:20 PM 44.6 °F 39.2 °F 32.0 °F 61% 30.34 in 10.0 mi NNE 10.4 mph - N/A   Overcast
7:40 PM 44.6 °F 40.7 °F 32.0 °F 61% 30.34 in 10.0 mi NE 6.9 mph - N/A   Overcast
8:00 PM 42.8 °F 38.6 °F 32.0 °F 66% 30.34 in 10.0 mi NNE 6.9 mph - N/A   Overcast
8:20 PM 42.8 °F 38.6 °F 30.2 °F 61% 30.35 in 10.0 mi NNE 6.9 mph - N/A   Overcast
8:40 PM 42.8 °F 38.0 °F 30.2 °F 61% 30.36 in 10.0 mi NNE 8.1 mph - N/A   Overcast
9:00 PM 42.8 °F 38.6 °F 30.2 °F 61% 30.36 in 10.0 mi NNE 6.9 mph - N/A   Mostly Cloudy
9:20 PM 41.0 °F 36.4 °F 30.2 °F 65% 30.36 in 10.0 mi NNE 6.9 mph - N/A   Overcast
9:40 PM 41.0 °F 37.1 °F 30.2 °F 65% 30.37 in 10.0 mi NNE 5.8 mph - N/A   Overcast
10:00 PM 41.0 °F 36.4 °F 30.2 °F 65% 30.37 in 10.0 mi North 6.9 mph - N/A   Scattered Clouds
10:20 PM 41.0 °F 35.8 °F 30.2 °F 65% 30.37 in 10.0 mi North 8.1 mph - N/A   Clear
10:40 PM 41.0 °F 35.2 °F 30.2 °F 65% 30.38 in 10.0 mi North 9.2 mph - N/A   Clear
11:00 PM 41.0 °F 36.4 °F 32.0 °F 70% 30.37 in 10.0 mi North 6.9 mph - N/A   Clear
11:40 PM 39.2 °F 33.6 °F 32.0 °F 75% 30.37 in 10.0 mi North 8.1 mph - N/A   Clear